owner,sensor,date,latitude,longitude,vertical_datum,wind_speed,wind_to_direction,wind_speed_of_gust,qcFlag 
TABS,ioos:station:wmo:42043:1,2008-05-01T00:00:00Z,28.9818,-94.9186,4.0,8.633637704,156.3746879,11.18,'11111222,11111222,11111222' 
TABS,ioos:station:wmo:42043:1,2008-05-01T00:30:00Z,28.9818,-94.9186,4.0,8.395385637,158.4776607,10.6,'11111222,11111222,11111222' 
TABS,ioos:station:wmo:42043:1,2008-05-01T01:00:00Z,28.9818,-94.9186,4.0,8.398362936,162.9677428,10.79,'11111222,11111222,11111222' 
TABS,ioos:station:wmo:42043:1,2008-05-01T01:30:00Z,28.9818,-94.9186,4.0,8.573359901,162.1359175,10.43,'11111222,11111222,11111222' 
TABS,ioos:station:wmo:42043:1,2008-05-01T02:00:00Z,28.9818,-94.9186,4.0,8.840463789,165.7910917,11.52,'11111222,11111222,11111222' 
TABS,ioos:station:wmo:42043:1,2008-05-01T02:30:00Z,28.9818,-94.9186,4.0,9.136328584,165.8727406,11.82,'11111222,11111222,11111222' 
TABS,ioos:station:wmo:42043:1,2008-05-01T03:00:00Z,28.9818,-94.9186,4.0,9.295939974,164.7829677,11.43,'11111222,11111222,11111222' 
TABS,ioos:station:wmo:42043:1,2008-05-01T03:30:00Z,28.9818,-94.9186,4.0,9.179989107,166.0699626,12.86,'11111222,11111222,11111222' 
TABS,ioos:station:wmo:42043:1,2008-05-01T04:00:00Z,28.9818,-94.9186,4.0,8.701683745,168.5999125,11.52,'11111222,11111222,11111222' 
TABS,ioos:station:wmo:42043:1,2008-05-01T04:30:00Z,28.9818,-94.9186,4.0,8.23502884,174.0057856,10.66,'11111222,11111222,11111222' 
TABS,ioos:station:wmo:42043:1,2008-05-01T05:00:00Z,28.9818,-94.9186,4.0,8.742745564,172.1110974,11.46,'11111222,11111222,11111222' 
TABS,ioos:station:wmo:42043:1,2008-05-01T05:30:00Z,28.9818,-94.9186,4.0,8.663400025,174.9674593,10.95,'11111222,11111222,11111222' 
TABS,ioos:station:wmo:42043:1,2008-05-01T06:00:00Z,28.9818,-94.9186,4.0,9.284013141,173.8167835,12.42,'11111222,11111222,11111222' 
TABS,ioos:station:wmo:42043:1,2008-05-01T06:30:00Z,28.9818,-94.9186,4.0,9.581362116,171.658705,12.13,'11111222,11111222,11111222' 
TABS,ioos:station:wmo:42043:1,2008-05-01T07:00:00Z,28.9818,-94.9186,4.0,9.508149136,171.3502791,11.91,'11111222,11111222,11111222' 
TABS,ioos:station:wmo:42043:1,2008-05-01T07:30:00Z,28.9818,-94.9186,4.0,9.524772963,173.852679,12.18,'11111222,11111222,11111222' 
TABS,ioos:station:wmo:42043:1,2008-05-01T08:00:00Z,28.9818,-94.9186,4.0,9.369231559,171.6539182,12.05,'11111222,11111222,11111222' 
TABS,ioos:station:wmo:42043:1,2008-05-01T08:30:00Z,28.9818,-94.9186,4.0,8.710298502,172.2143248,11.0,'11111222,11111222,11111222' 
TABS,ioos:station:wmo:42043:1,2008-05-01T09:00:00Z,28.9818,-94.9186,4.0,8.502764256,172.499096,10.89,'11111222,11111222,11111222' 
TABS,ioos:station:wmo:42043:1,2008-05-01T09:30:00Z,28.9818,-94.9186,4.0,8.082177924,170.0251071,10.6,'11111222,11111222,11111222' 
TABS,ioos:station:wmo:42043:1,2008-05-01T10:00:00Z,28.9818,-94.9186,4.0,7.412914407,170.9191133,9.7,'11111222,11111222,11111222' 
TABS,ioos:station:wmo:42043:1,2008-05-01T10:30:00Z,28.9818,-94.9186,4.0,7.556487279,171.3232454,9.48,'11111222,11111222,11111222' 
TABS,ioos:station:wmo:42043:1,2008-05-01T11:00:00Z,28.9818,-94.9186,4.0,7.535210681,171.3754698,9.99,'11111222,11111222,11111222' 
TABS,ioos:station:wmo:42043:1,2008-05-01T11:30:00Z,28.9818,-94.9186,4.0,7.052389666,168.4672413,9.24,'11111222,11111222,11111222' 
TABS,ioos:station:wmo:42043:1,2008-05-01T12:00:00Z,28.9818,-94.9186,4.0,7.040923235,168.1157713,8.96,'11111222,11111222,11111222' 
TABS,ioos:station:wmo:42043:1,2008-05-01T12:30:00Z,28.9818,-94.9186,4.0,6.594763074,164.341268,8.76,'11111222,11111222,11111222' 
TABS,ioos:station:wmo:42043:1,2008-05-01T13:00:00Z,28.9818,-94.9186,4.0,7.718354747,164.2893762,9.8,'11111222,11111222,11111222' 
TABS,ioos:station:wmo:42043:1,2008-05-01T13:30:00Z,28.9818,-94.9186,4.0,7.034891613,164.837989,8.93,'11111222,11111222,11111222' 
TABS,ioos:station:wmo:42043:1,2008-05-01T14:00:00Z,28.9818,-94.9186,4.0,7.07350691,164.9227327,9.05,'11111222,11111222,11111222' 
TABS,ioos:station:wmo:42043:1,2008-05-01T14:30:00Z,28.9818,-94.9186,4.0,7.601401187,163.0194387,9.35,'11111222,11111222,11111222' 
TABS,ioos:station:wmo:42043:1,2008-05-01T15:00:00Z,28.9818,-94.9186,4.0,8.322505632,165.0289164,10.55,'11111222,11111222,11111222' 
TABS,ioos:station:wmo:42043:1,2008-05-01T15:30:00Z,28.9818,-94.9186,4.0,8.295233571,163.9030505,10.79,'11111222,11111222,11111222' 
TABS,ioos:station:wmo:42043:1,2008-05-01T16:00:00Z,28.9818,-94.9186,4.0,6.99889277,158.0164308,8.9,'11111222,11111222,11111222' 
TABS,ioos:station:wmo:42043:1,2008-05-01T16:30:00Z,28.9818,-94.9186,4.0,7.149265697,160.0445386,9.01,'11111222,11111222,11111222' 
TABS,ioos:station:wmo:42043:1,2008-05-01T17:00:00Z,28.9818,-94.9186,4.0,7.162269193,158.198852,9.0,'11111222,11111222,11111222' 
TABS,ioos:station:wmo:42043:1,2008-05-01T17:30:00Z,28.9818,-94.9186,4.0,7.378217942,155.2413988,9.08,'11111222,11111222,11111222' 
TABS,ioos:station:wmo:42043:1,2008-05-01T18:00:00Z,28.9818,-94.9186,4.0,7.514000266,151.2863631,9.62,'11111222,11111222,11111222' 
TABS,ioos:station:wmo:42043:1,2008-05-01T18:30:00Z,28.9818,-94.9186,4.0,7.824129345,152.0268643,9.39,'11111222,11111222,11111222' 
TABS,ioos:station:wmo:42043:1,2008-05-01T19:00:00Z,28.9818,-94.9186,4.0,8.08566633,153.2450817,10.37,'11111222,11111222,11111222' 
TABS,ioos:station:wmo:42043:1,2008-05-01T19:30:00Z,28.9818,-94.9186,4.0,7.863078278,157.4140292,10.98,'11111222,11111222,11111222' 
TABS,ioos:station:wmo:42043:1,2008-05-01T20:00:00Z,28.9818,-94.9186,4.0,7.236850144,152.5146042,9.13,'11111222,11111222,11111222' 
TABS,ioos:station:wmo:42043:1,2008-05-01T20:30:00Z,28.9818,-94.9186,4.0,6.678592666,146.3578094,8.43,'11111222,11111222,11111222' 
TABS,ioos:station:wmo:42043:1,2008-05-01T21:00:00Z,28.9818,-94.9186,4.0,6.579118482,149.6936947,8.19,'11111222,11111222,11111222' 
TABS,ioos:station:wmo:42043:1,2008-05-01T21:30:00Z,28.9818,-94.9186,4.0,8.148404752,148.3973886,10.14,'11111222,11111222,11111222' 
TABS,ioos:station:wmo:42043:1,2008-05-01T22:00:00Z,28.9818,-94.9186,4.0,8.711245606,151.6995209,11.21,'11111222,11111222,11111222' 
TABS,ioos:station:wmo:42043:1,2008-05-01T22:30:00Z,28.9818,-94.9186,4.0,9.093261241,150.7008749,11.28,'11111222,11111222,11111222' 
TABS,ioos:station:wmo:42043:1,2008-05-01T23:00:00Z,28.9818,-94.9186,4.0,9.372006189,151.1653788,11.91,'11111222,11111222,11111222' 
TABS,ioos:station:wmo:42043:1,2008-05-01T23:30:00Z,28.9818,-94.9186,4.0,9.507917753,150.9281151,12.65,'11111222,11111222,11111222' 
TABS,ioos:station:wmo:42043:1,2008-05-02T00:00:00Z,28.9818,-94.9186,4.0,10.22070448,158.0531148,13.32,'11111222,11111222,11111222' 
TABS,ioos:station:wmo:42043:1,2008-05-02T00:30:00Z,28.9818,-94.9186,4.0,9.913193229,160.2492355,12.48,'11111222,11111222,11111222' 
TABS,ioos:station:wmo:42043:1,2008-05-02T01:00:00Z,28.9818,-94.9186,4.0,10.01408009,160.3348863,12.66,'11111222,11111222,11111222' 
TABS,ioos:station:wmo:42043:1,2008-05-02T01:30:00Z,28.9818,-94.9186,4.0,10.12960513,162.2986776,12.79,'11111222,11111222,11111222' 
TABS,ioos:station:wmo:42043:1,2008-05-02T02:00:00Z,28.9818,-94.9186,4.0,8.461607412,163.6642058,10.5,'11111222,11111222,11111222' 
TABS,ioos:station:wmo:42043:1,2008-05-02T02:30:00Z,28.9818,-94.9186,4.0,9.063200318,163.7248715,12.28,'11111222,11111222,11111222' 
TABS,ioos:station:wmo:42043:1,2008-05-02T03:00:00Z,28.9818,-94.9186,4.0,8.680812174,162.0871086,10.97,'11111222,11111222,11111222' 
TABS,ioos:station:wmo:42043:1,2008-05-02T03:30:00Z,28.9818,-94.9186,4.0,8.430634614,161.6082872,10.18,'11111222,11111222,11111222' 
TABS,ioos:station:wmo:42043:1,2008-05-02T04:00:00Z,28.9818,-94.9186,4.0,8.816450533,161.6886094,11.47,'11111222,11111222,11111222' 
TABS,ioos:station:wmo:42043:1,2008-05-02T04:30:00Z,28.9818,-94.9186,4.0,8.491907913,162.5254771,10.62,'11111222,11111222,11111222' 
TABS,ioos:station:wmo:42043:1,2008-05-02T05:00:00Z,28.9818,-94.9186,4.0,9.306648161,161.7794567,11.4,'11111222,11111222,11111222' 
TABS,ioos:station:wmo:42043:1,2008-05-02T05:30:00Z,28.9818,-94.9186,4.0,8.404808148,157.7684465,10.02,'11111222,11111222,11111222' 
TABS,ioos:station:wmo:42043:1,2008-05-02T06:00:00Z,28.9818,-94.9186,4.0,9.495562121,154.3527369,11.88,'11111222,11111222,11111222' 
TABS,ioos:station:wmo:42043:1,2008-05-02T06:30:00Z,28.9818,-94.9186,4.0,9.228656457,163.3128985,11.64,'11111222,11111222,11111222' 
TABS,ioos:station:wmo:42043:1,2008-05-02T07:00:00Z,28.9818,-94.9186,4.0,8.273246038,163.9311855,10.48,'11111222,11111222,11111222' 
TABS,ioos:station:wmo:42043:1,2008-05-02T07:30:00Z,28.9818,-94.9186,4.0,8.050204966,166.5681798,10.22,'11111222,11111222,11111222' 
TABS,ioos:station:wmo:42043:1,2008-05-02T08:00:00Z,28.9818,-94.9186,4.0,8.221727312,169.3463328,10.51,'11111222,11111222,11111222' 
TABS,ioos:station:wmo:42043:1,2008-05-02T08:30:00Z,28.9818,-94.9186,4.0,8.024375365,172.1932574,9.82,'11111222,11111222,11111222' 
TABS,ioos:station:wmo:42043:1,2008-05-02T09:00:00Z,28.9818,-94.9186,4.0,7.446858398,174.2972864,9.76,'11111222,11111222,11111222' 
TABS,ioos:station:wmo:42043:1,2008-05-02T09:30:00Z,28.9818,-94.9186,4.0,7.405538468,173.6429457,9.41,'11111222,11111222,11111222' 
TABS,ioos:station:wmo:42043:1,2008-05-02T10:00:00Z,28.9818,-94.9186,4.0,7.33062071,173.2629926,9.66,'11111222,11111222,11111222' 
TABS,ioos:station:wmo:42043:1,2008-05-02T10:30:00Z,28.9818,-94.9186,4.0,7.193066106,178.3272388,9.26,'11111222,11111222,11111222' 
TABS,ioos:station:wmo:42043:1,2008-05-02T11:00:00Z,28.9818,-94.9186,4.0,7.247516816,177.3904749,8.77,'11111222,11111222,11111222' 
TABS,ioos:station:wmo:42043:1,2008-05-02T11:30:00Z,28.9818,-94.9186,4.0,7.311477279,175.6075256,9.27,'11111222,11111222,11111222' 
TABS,ioos:station:wmo:42043:1,2008-05-02T12:00:00Z,28.9818,-94.9186,4.0,7.052630715,172.99613,8.94,'11111222,11111222,11111222' 
TABS,ioos:station:wmo:42043:1,2008-05-02T12:30:00Z,28.9818,-94.9186,4.0,6.933815688,178.0993211,8.99,'11111222,11111222,11111222' 
TABS,ioos:station:wmo:42043:1,2008-05-02T13:00:00Z,28.9818,-94.9186,4.0,6.422974389,174.191993,8.54,'11111222,11111222,11111222' 
TABS,ioos:station:wmo:42043:1,2008-05-02T13:30:00Z,28.9818,-94.9186,4.0,6.544807102,176.1453813,8.17,'11111222,11111222,11111222' 
TABS,ioos:station:wmo:42043:1,2008-05-02T14:00:00Z,28.9818,-94.9186,4.0,5.893089173,171.6088817,7.48,'11111222,11111222,11111222' 
TABS,ioos:station:wmo:42043:1,2008-05-02T14:30:00Z,28.9818,-94.9186,4.0,6.38839573,166.0510091,8.33,'11111222,11111222,11111222' 
TABS,ioos:station:wmo:42043:1,2008-05-02T15:00:00Z,28.9818,-94.9186,4.0,6.437584951,163.1134588,8.81,'11111222,11111222,11111222' 
TABS,ioos:station:wmo:42043:1,2008-05-02T15:30:00Z,28.9818,-94.9186,4.0,6.371326393,158.549535,7.84,'11111222,11111222,11111222' 
TABS,ioos:station:wmo:42043:1,2008-05-02T16:00:00Z,28.9818,-94.9186,4.0,5.968249325,158.1631982,7.7,'11111222,11111222,11111222' 
TABS,ioos:station:wmo:42043:1,2008-05-02T16:30:00Z,28.9818,-94.9186,4.0,5.389860852,162.8428128,6.97,'11111222,11111222,11111222' 
TABS,ioos:station:wmo:42043:1,2008-05-02T17:00:00Z,28.9818,-94.9186,4.0,2.618110005,344.2648547,4.7,'11111222,11111222,11111222' 
TABS,ioos:station:wmo:42043:1,2008-05-02T17:30:00Z,28.9818,-94.9186,4.0,1.99812412,354.8313337,3.24,'11111222,11111222,11111222' 
TABS,ioos:station:wmo:42043:1,2008-05-02T18:00:00Z,28.9818,-94.9186,4.0,0.483735465,150.2553987,1.99,'11111222,11111222,11111222' 
TABS,ioos:station:wmo:42043:1,2008-05-02T18:30:00Z,28.9818,-94.9186,4.0,1.964001018,143.0720532,2.84,'11111222,11111222,11111222' 
TABS,ioos:station:wmo:42043:1,2008-05-02T19:00:00Z,28.9818,-94.9186,4.0,2.256302285,150.822352,3.22,'11111222,11111222,11111222' 
TABS,ioos:station:wmo:42043:1,2008-05-02T19:30:00Z,28.9818,-94.9186,4.0,2.14848784,151.049283,3.02,'11111222,11111222,11111222' 
TABS,ioos:station:wmo:42043:1,2008-05-02T20:00:00Z,28.9818,-94.9186,4.0,2.550490149,144.2536991,3.42,'11111222,11111222,11111222' 
TABS,ioos:station:wmo:42043:1,2008-05-02T20:30:00Z,28.9818,-94.9186,4.0,3.234223245,143.8036007,4.54,'11111222,11111222,11111222' 
TABS,ioos:station:wmo:42043:1,2008-05-02T21:00:00Z,28.9818,-94.9186,4.0,4.007455552,141.5861077,5.2,'11111222,11111222,11111222' 
TABS,ioos:station:wmo:42043:1,2008-05-02T21:30:00Z,28.9818,-94.9186,4.0,4.285067094,146.4214753,5.69,'11111222,11111222,11111222' 
TABS,ioos:station:wmo:42043:1,2008-05-02T22:00:00Z,28.9818,-94.9186,4.0,3.818717062,142.020041,5.26,'11111222,11111222,11111222' 
TABS,ioos:station:wmo:42043:1,2008-05-02T22:30:00Z,28.9818,-94.9186,4.0,4.666347608,144.9479185,6.03,'11111222,11111222,11111222' 
TABS,ioos:station:wmo:42043:1,2008-05-02T23:00:00Z,28.9818,-94.9186,4.0,5.219894635,145.8535711,6.47,'11111222,11111222,11111222' 
TABS,ioos:station:wmo:42043:1,2008-05-02T23:30:00Z,28.9818,-94.9186,4.0,5.771490275,149.8367404,7.4,'11111222,11111222,11111222' 
TABS,ioos:station:wmo:42043:1,2008-05-03T00:00:00Z,28.9818,-94.9186,4.0,5.161172347,152.7898038,6.42,'11111222,11111222,11111222' 
TABS,ioos:station:wmo:42043:1,2008-05-03T00:30:00Z,28.9818,-94.9186,4.0,5.010588788,151.9008835,6.55,'11111222,11111222,11111222' 
TABS,ioos:station:wmo:42043:1,2008-05-03T01:00:00Z,28.9818,-94.9186,4.0,5.306269876,150.5366514,6.86,'11111222,11111222,11111222' 
TABS,ioos:station:wmo:42043:1,2008-05-03T01:30:00Z,28.9818,-94.9186,4.0,4.906974628,150.7188519,6.2,'11111222,11111222,11111222' 
TABS,ioos:station:wmo:42043:1,2008-05-03T02:00:00Z,28.9818,-94.9186,4.0,5.512640021,159.3955546,7.38,'11111222,11111222,11111222' 
TABS,ioos:station:wmo:42043:1,2008-05-03T02:30:00Z,28.9818,-94.9186,4.0,6.445463521,155.8211599,8.74,'11111222,11111222,11111222' 
TABS,ioos:station:wmo:42043:1,2008-05-03T03:00:00Z,28.9818,-94.9186,4.0,6.315330554,151.1219138,8.09,'11111222,11111222,11111222' 
TABS,ioos:station:wmo:42043:1,2008-05-03T03:30:00Z,28.9818,-94.9186,4.0,6.803859199,155.8838723,8.45,'11111222,11111222,11111222' 
TABS,ioos:station:wmo:42043:1,2008-05-03T04:00:00Z,28.9818,-94.9186,4.0,5.036476943,158.9382459,6.32,'11111222,11111222,11111222' 
TABS,ioos:station:wmo:42043:1,2008-05-03T04:30:00Z,28.9818,-94.9186,4.0,4.706846078,162.9512194,5.99,'11111222,11111222,11111222' 
TABS,ioos:station:wmo:42043:1,2008-05-03T05:00:00Z,28.9818,-94.9186,4.0,4.287143571,168.4282036,6.16,'11111222,11111222,11111222' 
TABS,ioos:station:wmo:42043:1,2008-05-03T05:30:00Z,28.9818,-94.9186,4.0,5.028289968,165.1348877,7.06,'11111222,11111222,11111222' 
TABS,ioos:station:wmo:42043:1,2008-05-03T06:00:00Z,28.9818,-94.9186,4.0,3.835413928,172.2081506,5.51,'11111222,11111222,11111222' 
TABS,ioos:station:wmo:42043:1,2008-05-03T06:30:00Z,28.9818,-94.9186,4.0,3.420409332,169.2159378,4.49,'11111222,11111222,11111222' 
TABS,ioos:station:wmo:42043:1,2008-05-03T07:00:00Z,28.9818,-94.9186,4.0,4.797603568,176.774016,6.51,'11111222,11111222,11111222' 
TABS,ioos:station:wmo:42043:1,2008-05-03T07:30:00Z,28.9818,-94.9186,4.0,3.49755629,174.25703,4.59,'11111222,11111222,11111222' 
TABS,ioos:station:wmo:42043:1,2008-05-03T08:00:00Z,28.9818,-94.9186,4.0,3.001366356,164.3432943,4.04,'11111222,11111222,11111222' 
TABS,ioos:station:wmo:42043:1,2008-05-03T08:30:00Z,28.9818,-94.9186,4.0,3.671797925,162.4041991,4.62,'11111222,11111222,11111222' 
TABS,ioos:station:wmo:42043:1,2008-05-03T09:00:00Z,28.9818,-94.9186,4.0,2.794601939,172.3920366,4.53,'11111222,11111222,11111222' 
TABS,ioos:station:wmo:42043:1,2008-05-03T09:30:00Z,28.9818,-94.9186,4.0,1.163872845,197.5010308,2.0,'11111222,11111222,11111222' 
TABS,ioos:station:wmo:42043:1,2008-05-03T10:00:00Z,28.9818,-94.9186,4.0,2.010223868,179.1451151,3.22,'11111222,11111222,11111222' 
TABS,ioos:station:wmo:42043:1,2008-05-03T10:30:00Z,28.9818,-94.9186,4.0,1.474889826,184.6670579,2.54,'11111222,11111222,11111222' 
TABS,ioos:station:wmo:42043:1,2008-05-03T11:00:00Z,28.9818,-94.9186,4.0,1.551934277,170.3558274,2.69,'11111222,11111222,11111222' 
TABS,ioos:station:wmo:42043:1,2008-05-03T11:30:00Z,28.9818,-94.9186,4.0,0.59464275,132.2740111,1.21,'11111222,11111222,11111222' 
TABS,ioos:station:wmo:42043:1,2008-05-03T12:00:00Z,28.9818,-94.9186,4.0,0.410121933,1.396967301,1.0,'11111222,11111222,11111222' 
TABS,ioos:station:wmo:42043:1,2008-05-03T12:30:00Z,28.9818,-94.9186,4.0,1.409290602,138.1641919,2.4,'11111222,11111222,11111222' 
TABS,ioos:station:wmo:42043:1,2008-05-03T13:00:00Z,28.9818,-94.9186,4.0,0.759275971,347.0617635,1.35,'11111222,11111222,11111222' 
TABS,ioos:station:wmo:42043:1,2008-05-03T13:30:00Z,28.9818,-94.9186,4.0,1.522005256,343.5890433,2.48,'11111222,11111222,11111222' 
TABS,ioos:station:wmo:42043:1,2008-05-03T14:00:00Z,28.9818,-94.9186,4.0,1.400357097,24.91775379,2.18,'11111222,11111222,11111222' 
TABS,ioos:station:wmo:42043:1,2008-05-03T14:30:00Z,28.9818,-94.9186,4.0,1.026498904,47.76353522,1.88,'11111222,11111222,11111222' 
TABS,ioos:station:wmo:42043:1,2008-05-03T15:00:00Z,28.9818,-94.9186,4.0,1.619413474,8.880427925,2.25,'11111222,11111222,11111222' 
TABS,ioos:station:wmo:42043:1,2008-05-03T15:30:00Z,28.9818,-94.9186,4.0,1.238910812,332.607484,1.89,'11111222,11111222,11111222' 
TABS,ioos:station:wmo:42043:1,2008-05-03T16:00:00Z,28.9818,-94.9186,4.0,1.061743849,299.9456134,2.03,'11111222,11111222,11111222' 
TABS,ioos:station:wmo:42043:1,2008-05-03T16:30:00Z,28.9818,-94.9186,4.0,7.407381454,11.05181381,11.63,'11111222,11111222,11111222' 
TABS,ioos:station:wmo:42043:1,2008-05-03T17:00:00Z,28.9818,-94.9186,4.0,9.245198754,20.84592547,11.77,'11111222,11111222,11111222' 
TABS,ioos:station:wmo:42043:1,2008-05-03T17:30:00Z,28.9818,-94.9186,4.0,9.575980368,41.69782636,11.69,'11111222,11111222,11111222' 
TABS,ioos:station:wmo:42043:1,2008-05-03T18:00:00Z,28.9818,-94.9186,4.0,9.130038335,38.95352968,11.15,'11111222,11111222,11111222' 
TABS,ioos:station:wmo:42043:1,2008-05-03T18:30:00Z,28.9818,-94.9186,4.0,8.948726166,46.67504768,11.13,'11111222,11111222,11111222' 
TABS,ioos:station:wmo:42043:1,2008-05-03T19:00:00Z,28.9818,-94.9186,4.0,8.583105499,55.10607734,10.27,'11111222,11111222,11111222' 
TABS,ioos:station:wmo:42043:1,2008-05-03T19:30:00Z,28.9818,-94.9186,4.0,7.964602941,53.83477643,9.89,'11111222,11111222,11111222' 
TABS,ioos:station:wmo:42043:1,2008-05-03T20:00:00Z,28.9818,-94.9186,4.0,7.696336791,53.66578196,10.4,'11111222,11111222,11111222' 
TABS,ioos:station:wmo:42043:1,2008-05-03T20:30:00Z,28.9818,-94.9186,4.0,7.959528881,54.25278551,9.88,'11111222,11111222,11111222' 
TABS,ioos:station:wmo:42043:1,2008-05-03T21:00:00Z,28.9818,-94.9186,4.0,8.051397394,54.19726484,9.97,'11111222,11111222,11111222' 
TABS,ioos:station:wmo:42043:1,2008-05-03T21:30:00Z,28.9818,-94.9186,4.0,7.627371762,56.76794572,10.15,'11111222,11111222,11111222' 
TABS,ioos:station:wmo:42043:1,2008-05-03T22:00:00Z,28.9818,-94.9186,4.0,7.44476326,59.12828592,9.36,'11111222,11111222,11111222' 
TABS,ioos:station:wmo:42043:1,2008-05-03T22:30:00Z,28.9818,-94.9186,4.0,6.867677919,61.75539406,8.94,'11111222,11111222,11111222' 
TABS,ioos:station:wmo:42043:1,2008-05-03T23:00:00Z,28.9818,-94.9186,4.0,6.055353004,63.73079826,7.59,'11111222,11111222,11111222' 
TABS,ioos:station:wmo:42043:1,2008-05-03T23:30:00Z,28.9818,-94.9186,4.0,5.523513375,65.84756565,6.96,'11111222,11111222,11111222' 
TABS,ioos:station:wmo:42043:1,2008-05-04T00:00:00Z,28.9818,-94.9186,4.0,5.388923826,63.43459003,6.38,'11111222,11111222,11111222' 
TABS,ioos:station:wmo:42043:1,2008-05-04T00:30:00Z,28.9818,-94.9186,4.0,5.174640084,62.74133169,6.37,'11111222,11111222,11111222' 
TABS,ioos:station:wmo:42043:1,2008-05-04T01:00:00Z,28.9818,-94.9186,4.0,4.555403385,67.54424243,5.45,'11111222,11111222,11111222' 
TABS,ioos:station:wmo:42043:1,2008-05-04T01:30:00Z,28.9818,-94.9186,4.0,3.640467003,82.58175922,4.73,'11111222,11111222,11111222' 
TABS,ioos:station:wmo:42043:1,2008-05-04T02:00:00Z,28.9818,-94.9186,4.0,2.610153252,84.94427739,3.27,'11111222,11111222,11111222' 
TABS,ioos:station:wmo:42043:1,2008-05-04T02:30:00Z,28.9818,-94.9186,4.0,4.322557114,103.1042931,5.18,'11111222,11111222,11111222' 
TABS,ioos:station:wmo:42043:1,2008-05-04T03:00:00Z,28.9818,-94.9186,4.0,4.510088691,97.64541631,5.51,'11111222,11111222,11111222' 
TABS,ioos:station:wmo:42043:1,2008-05-04T03:30:00Z,28.9818,-94.9186,4.0,4.663871782,92.33521625,5.58,'11111222,11111222,11111222' 
TABS,ioos:station:wmo:42043:1,2008-05-04T04:00:00Z,28.9818,-94.9186,4.0,5.02410191,52.76483217,7.64,'11111222,11111222,11111222' 
TABS,ioos:station:wmo:42043:1,2008-05-04T04:30:00Z,28.9818,-94.9186,4.0,7.881281622,46.85060502,9.61,'11111222,11111222,11111222' 
TABS,ioos:station:wmo:42043:1,2008-05-04T05:00:00Z,28.9818,-94.9186,4.0,7.676906929,52.24905456,9.53,'11111222,11111222,11111222' 
TABS,ioos:station:wmo:42043:1,2008-05-04T05:30:00Z,28.9818,-94.9186,4.0,8.2603874,52.5748635,9.95,'11111222,11111222,11111222' 
TABS,ioos:station:wmo:42043:1,2008-05-04T06:00:00Z,28.9818,-94.9186,4.0,8.424405024,57.30937993,10.51,'11111222,11111222,11111222' 
TABS,ioos:station:wmo:42043:1,2008-05-04T06:30:00Z,28.9818,-94.9186,4.0,8.192588114,65.24891914,9.96,'11111222,11111222,11111222' 
TABS,ioos:station:wmo:42043:1,2008-05-04T07:00:00Z,28.9818,-94.9186,4.0,8.116680356,66.08731745,9.65,'11111222,11111222,11111222' 
TABS,ioos:station:wmo:42043:1,2008-05-04T07:30:00Z,28.9818,-94.9186,4.0,7.947760691,68.21160741,9.94,'11111222,11111222,11111222' 
TABS,ioos:station:wmo:42043:1,2008-05-04T08:00:00Z,28.9818,-94.9186,4.0,8.122979749,68.93173243,9.57,'11111222,11111222,11111222' 
TABS,ioos:station:wmo:42043:1,2008-05-04T08:30:00Z,28.9818,-94.9186,4.0,8.25702731,65.60736641,9.86,'11111222,11111222,11111222' 
TABS,ioos:station:wmo:42043:1,2008-05-04T09:00:00Z,28.9818,-94.9186,4.0,7.861329404,66.69577283,9.94,'11111222,11111222,11111222' 
TABS,ioos:station:wmo:42043:1,2008-05-04T09:30:00Z,28.9818,-94.9186,4.0,7.836612789,68.67341053,9.87,'11111222,11111222,11111222' 
TABS,ioos:station:wmo:42043:1,2008-05-04T10:00:00Z,28.9818,-94.9186,4.0,7.949968553,71.51909212,9.33,'11111222,11111222,11111222' 
TABS,ioos:station:wmo:42043:1,2008-05-04T10:30:00Z,28.9818,-94.9186,4.0,7.876883902,69.33290697,9.92,'11111222,11111222,11111222' 
TABS,ioos:station:wmo:42043:1,2008-05-04T11:00:00Z,28.9818,-94.9186,4.0,8.116772758,72.94878832,9.79,'11111222,11111222,11111222' 
TABS,ioos:station:wmo:42043:1,2008-05-04T11:30:00Z,28.9818,-94.9186,4.0,8.296222032,72.67855434,10.33,'11111222,11111222,11111222' 
TABS,ioos:station:wmo:42043:1,2008-05-04T12:00:00Z,28.9818,-94.9186,4.0,8.437831475,76.07865127,10.23,'11111222,11111222,11111222' 
TABS,ioos:station:wmo:42043:1,2008-05-04T12:30:00Z,28.9818,-94.9186,4.0,8.196877454,82.14628415,9.86,'11111222,11111222,11111222' 
TABS,ioos:station:wmo:42043:1,2008-05-04T13:00:00Z,28.9818,-94.9186,4.0,7.93426115,88.12170603,9.98,'11111222,11111222,11111222' 
TABS,ioos:station:wmo:42043:1,2008-05-04T13:30:00Z,28.9818,-94.9186,4.0,7.642676233,93.30083957,9.13,'11111222,11111222,11111222' 
TABS,ioos:station:wmo:42043:1,2008-05-04T14:00:00Z,28.9818,-94.9186,4.0,7.371302463,108.2632682,8.85,'11111222,11111222,11111222' 
TABS,ioos:station:wmo:42043:1,2008-05-04T14:30:00Z,28.9818,-94.9186,4.0,7.153097231,108.5873041,8.88,'11111222,11111222,11111222' 
TABS,ioos:station:wmo:42043:1,2008-05-04T15:00:00Z,28.9818,-94.9186,4.0,7.304772413,110.0974017,9.13,'11111222,11111222,11111222' 
TABS,ioos:station:wmo:42043:1,2008-05-04T15:30:00Z,28.9818,-94.9186,4.0,7.474068504,109.6232591,9.06,'11111222,11111222,11111222' 
TABS,ioos:station:wmo:42043:1,2008-05-04T16:00:00Z,28.9818,-94.9186,4.0,7.039382075,112.9958957,8.89,'11111222,11111222,11111222' 
TABS,ioos:station:wmo:42043:1,2008-05-04T16:30:00Z,28.9818,-94.9186,4.0,7.120849668,112.8925663,8.85,'11111222,11111222,11111222' 
TABS,ioos:station:wmo:42043:1,2008-05-04T17:00:00Z,28.9818,-94.9186,4.0,6.887336205,114.4443185,8.55,'11111222,11111222,11111222' 
TABS,ioos:station:wmo:42043:1,2008-05-04T17:30:00Z,28.9818,-94.9186,4.0,7.334807428,113.0348455,8.75,'11111222,11111222,11111222' 
TABS,ioos:station:wmo:42043:1,2008-05-04T18:00:00Z,28.9818,-94.9186,4.0,7.173513783,113.6709041,8.91,'11111222,11111222,11111222' 
TABS,ioos:station:wmo:42043:1,2008-05-04T18:30:00Z,28.9818,-94.9186,4.0,7.400878326,113.8292245,9.01,'11111222,11111222,11111222' 